Погода в Дюнкерке

Франция     51°01′46″N   2°22′49″E
В апреле 2022 года жителям России запретили посещать сайт meteo.paraplan.net по решению Генеральной прокуратуры. Аудитория сайта уменьшилась в 10 раз. Владельцы сайта не видят смысла в поддержке погодного сервера в таких условиях. Сайт будет закрыт в октябре.
темп.,
°C
ветер,
м/с
пор.,
м/с
влажн.,
%
обл.,
%
осадки,
мм/ч
давл.,
гПа
погр.,
м
25 сентября, вс
вс2523:00+15ссв7106880 0.2 1017881
02:00+14ссв576855 0.3 1017612
05:00+14ссв587489 0.8 1017511
08:00+13ссв467984 1.9 1017391
11:00+15с457272 1.8 1018753
14:00+15ссз556860 2.6 10171022
17:00+15ссз55708 0.8 1016943
20:00+14зсз5668100 1.2 1015550
26 сентября, пн
пн2623:00+12зюз5766100 0.0 1014523
02:00+12юз5966100 0.0 1011594
05:00+13юз61176100 0.1 1007664
08:00+13юз71383100 0.4 1004788
11:00+14з81190100 7.4 1000775
14:00+15сз896320 10.4 10001499
17:00+14ссз91067100 1.1 10011168
20:00+13ссз101369100 2.9 10031037
27 сентября, вт
вт2723:00+12сз811605 0.1 1004882
02:00+12з7106877 0.4 1004710
05:00+11з7117397 0.3 1003651
08:00+11з7107493 0.6 1001638
11:00+13зсз10127690 1.7 10011170
14:00+14зсз9125836 2.6 10001680
17:00+13зсз9116377 0.8 10001620
20:00+12з71166100 1.6 999830
28 сентября, ср
ср2823:00+12зсз8126970 1.0 998862
02:00+12зсз8117265 1.6 998764
05:00+12зсз8107275 0.6 997812
08:00+12зсз91172100 0.8 998940
11:00+13сз9107283 0.3 999965
14:00+14сз896841 1.4 10001329
17:00+14зсз786143 0.6 10001510
20:00+14зсз7962100 1.1 1001692
29 сентября, чт
чт2923:00+13сз686456 1.1 1002577
02:00+13зсз686741 2.3 1002543
05:00+12сз697725 1.3 1002498
08:00+12зсз68788 2.9 1002487
11:00+14сз676599 0.6 10031250
14:00+14зсз6665100 1.1 10041224
17:00+13з5768100 0.3 10041094
20:00+11ююз468098 0.5 1005398